Location: Fontevrault
(47.1823°N, 0.0493°E)
Time: 09:22:33
(UTC+00:00)

Cosmos 1975 Rocket - Pass Details

Date: 16 June 2021
Orbit: 604 x 633 km, 82.5° (Epoch: 01 August)

Event Time Altitude Azimuth Distance (km) Brightness Sun altitude
Exits shadow 21:18:20 - 185° (S) 2,240 5.5 -10.5°
Reaches altitude 10° 21:19:01 10° 184° (S) 1,960 5.2 -10.6°
Maximum altitude 21:23:21 82° 97° (E) 627 3.0 -11.0°
Drops below altitude 10° 21:27:47 10° 11° (N) 1,994 6.3 -11.5°
Sets 21:30:01 0° 11° (N) 2,910 7.2 -11.7°
